Flag for Canada Weather past 2 weeks in London, Ontario, Canada

Now
27 °F

Clear.


Feels Like: 21 °F
Forecast: 27 / 38 °F
Wind: 5 mph from South

Location: London Weather Station

Current Time: Dec 21, 2014 at 7:22:26 PM

Latest Report: Dec 21, 2014 at 6:00 PM


Visibility: 12 mi

Pressure: 30.30 "Hg

Humidity: 86%

Dew point: 23 °F

Location of LondonLocation

Historic Weather in London — Graph

°F

London temperature yesterday

Maximum temperature yesterday: 28 °F (at 11:00 AM)
Minimum temperature yesterday: 19 °F (at 2:00 AM)
Average temperature yesterday: 26 °F

Past Weeks' High & Low Weather Summary

 TemperatureHumidityPressure
High43 °F (Dec 15, 2:00 PM)100% (Dec 9, 8:00 AM)30.76 "Hg (Dec 9, 8:00 AM)
Low19 °F (Dec 19, 6:00 AM)40% (Dec 7, 1:00 PM)29.67 "Hg (Dec 16, 3:00 PM)
Average32 °F86%30.14 "Hg
* Reported Dec 6 6:00 PM — Dec 21 6:00 PM, London, Weather by CustomWeather, © 2014

Note: Actual official high and low records may vary slightly from our data, if they occured in-between our weather recording intervals... More about our weather records

Advertising

London weather history for previous 24 hours

 ConditionsComfort  
Time TempWeatherWind HumidityBarometerVisibility
6:00 PM
Dec 21
27 °FClear.5 mph86%30.30 "Hg12 mi
5:00 PM28 °FPassing clouds.6 mph74%30.29 "Hg10 mi
4:00 PM32 °FScattered clouds.3 mph60%30.28 "Hg15 mi
3:00 PM34 °FScattered clouds.2 mph60%30.27 "Hg15 mi
2:00 PM32 °FPassing clouds.2 mph64%30.29 "Hg15 mi
1:00 PM32 °FPassing clouds.5 mph64%30.30 "Hg12 mi
12:00 PM30 °FPartly sunny.5 mph69%30.32 "Hg12 mi
11:00 AM30 °FPartly sunny.6 mph64%30.34 "Hg12 mi
10:00 AM28 °FMostly cloudy.2 mph69%30.35 "Hg12 mi
9:00 AM27 °FMostly cloudy.No wind74%30.34 "Hg12 mi
8:00 AM27 °FOvercast.3 mph74%30.34 "Hg12 mi
7:00 AM27 °FOvercast.5 mph80%30.35 "Hg8 mi
6:00 AM27 °FIce fog.3 mph80%30.33 "Hg6 mi
5:00 AM27 °FOvercast.3 mph80%30.31 "Hg7 mi
4:00 AM27 °FOvercast.2 mph80%30.31 "Hg8 mi
3:00 AM27 °FOvercast.No wind86%30.32 "Hg8 mi
2:00 AM27 °FPassing clouds.3 mph86%30.30 "Hg15 mi
1:00 AM27 °FPartly cloudy.3 mph86%30.29 "Hg15 mi
12:00 AM27 °FPassing clouds.3 mph86%30.29 "Hg15 mi
11:00 PM
Dec 20
27 °FOvercast.2 mph86%30.30 "Hg15 mi
10:00 PM28 °FOvercast.2 mph80%30.31 "Hg15 mi
9:00 PM28 °FOvercast.3 mph80%30.31 "Hg15 mi
8:00 PM28 °FOvercast.5 mph80%30.31 "Hg15 mi
7:00 PM28 °FOvercast.2 mph80%30.31 "Hg15 mi
Weather by CustomWeather, © 2014

See weather overviewHow to use our weather pages